Check out our new BloomSky Weather System.

Active alerts


No alerts


Thunder radar  blitzortung!


Rain radar more information rain snow radar


Visit our other weather sites:

Template documentation
and downloads

And another site



Weather Underground History page Text

Daily Summary for August 25, 2017 Units:  English    Metric   Both
« Previous Day
Next Day »
Daily Weekly Monthly Yearly Custom
  High: Low: Average:
Temperature: 79.5 °F 76.5 °F 77.5 °F
Dew Point: 77.4 °F 72.7 °F 74.9 °F
Humidity: 96 % 86 % 92 %
Wind Speed: 13.0 mph 0.0 mph 2.9 mph
Wind Gust: 25.0 mph - -
Wind:- - SSE
Pressure: 29.87 in 29.79 in -
Precipitation: 0.29 in    
Historical Graphs
 
 
Tabular Data for August 25, 2017
Time Temperature Dew Point Pressure Wind Wind Speed Wind Gust Humidity Rainfall Rate (Hourly)
00:02 78.1 °F 73.6 °F 29.85 in NE 1.0 mph 7.0 mph 86 % 0.00 in
00:07 78.1 °F 73.6 °F 29.85 in North 2.0 mph 7.0 mph 86 % 0.00 in
00:12 77.9 °F 73.4 °F 29.85 in WNW 2.0 mph 7.0 mph 86 % 0.00 in
00:17 77.9 °F 73.4 °F 29.85 in ENE 4.0 mph 4.0 mph 86 % 0.00 in
00:23 77.9 °F 73.4 °F 29.85 in ESE 1.0 mph 5.0 mph 86 % 0.00 in
00:28 77.7 °F 73.2 °F 29.85 in NE 2.0 mph 6.0 mph 86 % 0.00 in
00:33 77.7 °F 73.2 °F 29.85 in East 3.0 mph 7.0 mph 86 % 0.00 in
00:36 77.7 °F 73.6 °F 29.85 in NNW 2.0 mph 7.0 mph 87 % 0.00 in
00:41 77.5 °F 73.4 °F 29.85 in Calm   7.0 mph 87 % 0.00 in
00:46 77.5 °F 73.4 °F 29.85 in ENE 3.0 mph 6.0 mph 87 % 0.00 in
00:51 77.4 °F 73.2 °F 29.85 in Calm   6.0 mph 87 % 0.00 in
00:56 77.4 °F 73.2 °F 29.85 in NE 4.0 mph 6.0 mph 87 % 0.00 in
01:01 77.4 °F 73.2 °F 29.85 in East 5.0 mph 6.0 mph 87 % 0.00 in
01:06 77.2 °F 73.0 °F 29.84 in NW 2.0 mph 7.0 mph 87 % 0.00 in
01:11 77.2 °F 73.0 °F 29.84 in NW 5.0 mph 7.0 mph 87 % 0.00 in
01:16 77.2 °F 73.0 °F 29.84 in NW 4.0 mph 7.0 mph 87 % 0.00 in
01:21 77.2 °F 73.0 °F 29.83 in NNE 2.0 mph 8.0 mph 87 % 0.00 in
01:26 77.2 °F 73.0 °F 29.83 in NNW 2.0 mph 8.0 mph 87 % 0.00 in
01:36 77.0 °F 72.9 °F 29.83 in SE 4.0 mph 5.0 mph 87 % 0.00 in
01:41 76.8 °F 72.7 °F 29.83 in Calm   5.0 mph 87 % 0.00 in
01:46 76.8 °F 73.0 °F 29.83 in Calm   5.0 mph 88 % 0.00 in
01:51 76.8 °F 73.0 °F 29.83 in North 1.0 mph 4.0 mph 88 % 0.00 in
01:56 76.6 °F 72.9 °F 29.83 in North 2.0 mph 4.0 mph 88 % 0.00 in
02:01 76.6 °F 72.9 °F 29.83 in Calm   4.0 mph 88 % 0.00 in
02:02 76.6 °F 72.9 °F 29.83 in East 2.0 mph 4.0 mph 88 % 0.00 in
02:07 76.6 °F 72.9 °F 29.83 in ENE 1.0 mph 3.0 mph 88 % 0.00 in
02:12 76.6 °F 72.9 °F 29.83 in NNW 1.0 mph 5.0 mph 88 % 0.00 in
02:17 76.5 °F 72.7 °F 29.83 in Calm   5.0 mph 88 % 0.00 in
02:22 76.5 °F 72.7 °F 29.82 in NNW 1.0 mph 5.0 mph 88 % 0.00 in
02:27 76.5 °F 72.7 °F 29.82 in East 3.0 mph 4.0 mph 88 % 0.00 in
02:32 76.5 °F 72.7 °F 29.82 in Calm   7.0 mph 88 % 0.00 in
02:37 76.6 °F 72.9 °F 29.82 in NNW 2.0 mph 7.0 mph 88 % 0.00 in
02:42 76.6 °F 72.9 °F 29.81 in NNE 1.0 mph 8.0 mph 88 % 0.00 in
02:47 76.6 °F 72.9 °F 29.81 in Calm   8.0 mph 88 % 0.00 in
02:52 76.6 °F 72.9 °F 29.81 in East 3.0 mph 8.0 mph 88 % 0.00 in
02:53 76.6 °F 72.9 °F 29.81 in North 2.0 mph 8.0 mph 88 % 0.00 in
02:58 76.6 °F 72.9 °F 29.81 in NNW 2.0 mph 5.0 mph 88 % 0.00 in
03:03 76.5 °F 72.7 °F 29.81 in NNW 1.0 mph 5.0 mph 88 % 0.00 in
03:08 76.5 °F 72.7 °F 29.81 in ESE 3.0 mph 5.0 mph 88 % 0.00 in
03:13 76.5 °F 72.7 °F 29.82 in East 2.0 mph 7.0 mph 88 % 0.00 in
03:18 76.5 °F 72.7 °F 29.82 in NW 2.0 mph 8.0 mph 88 % 0.00 in
03:23 76.5 °F 72.7 °F 29.82 in ENE 2.0 mph 8.0 mph 88 % 0.00 in
03:28 76.5 °F 72.7 °F 29.81 in ENE 1.0 mph 9.0 mph 88 % 0.00 in
03:33 76.5 °F 72.7 °F 29.82 in NW 2.0 mph 9.0 mph 88 % 0.00 in
03:38 76.5 °F 72.7 °F 29.81 in East 6.0 mph 9.0 mph 88 % 0.00 in
03:43 76.6 °F 72.9 °F 29.81 in East 3.0 mph 7.0 mph 88 % 0.00 in
03:48 76.6 °F 72.9 °F 29.81 in Calm   7.0 mph 88 % 0.00 in
03:53 76.6 °F 72.9 °F 29.81 in East 1.0 mph 7.0 mph 88 % 0.00 in
03:58 76.6 °F 72.9 °F 29.81 in Calm   7.0 mph 88 % 0.00 in
04:03 76.6 °F 72.9 °F 29.81 in North 3.0 mph 7.0 mph 88 % 0.00 in
04:08 76.6 °F 72.9 °F 29.81 in NNW 2.0 mph 7.0 mph 88 % 0.00 in
04:13 76.6 °F 72.9 °F 29.81 in NNW 1.0 mph 7.0 mph 88 % 0.00 in
04:16 76.6 °F 72.9 °F 29.81 in Calm   7.0 mph 88 % 0.00 in
04:21 76.6 °F 72.9 °F 29.81 in Calm   7.0 mph 88 % 0.00 in
04:26 76.6 °F 73.2 °F 29.81 in North 2.0 mph 5.0 mph 89 % 0.00 in
04:31 76.6 °F 73.2 °F 29.81 in ENE 4.0 mph 6.0 mph 89 % 0.00 in
04:36 76.6 °F 73.2 °F 29.81 in NNE 1.0 mph 7.0 mph 89 % 0.00 in
04:41 76.6 °F 73.2 °F 29.81 in NNW 2.0 mph 7.0 mph 89 % 0.00 in
04:46 76.6 °F 73.2 °F 29.81 in Calm   7.0 mph 89 % 0.00 in
04:51 76.6 °F 73.2 °F 29.81 in NE 3.0 mph 5.0 mph 89 % 0.00 in
04:56 76.6 °F 73.2 °F 29.81 in Calm   5.0 mph 89 % 0.00 in
05:01 76.6 °F 73.2 °F 29.82 in East 2.0 mph 5.0 mph 89 % 0.00 in
05:06 76.6 °F 73.2 °F 29.82 in NW 2.0 mph 6.0 mph 89 % 0.00 in
05:11 76.6 °F 73.4 °F 29.82 in SW 1.0 mph 7.0 mph 90 % 0.00 in
05:16 76.6 °F 73.4 °F 29.83 in NNW 4.0 mph 7.0 mph 90 % 0.00 in
05:21 76.6 °F 73.4 °F 29.83 in Calm   7.0 mph 90 % 0.00 in
05:26 76.6 °F 73.4 °F 29.83 in NNW 3.0 mph 7.0 mph 90 % 0.00 in
05:31 76.6 °F 73.4 °F 29.83 in Calm   7.0 mph 90 % 0.00 in
05:36 76.6 °F 73.4 °F 29.84 in North 2.0 mph 4.0 mph 90 % 0.00 in
05:41 76.6 °F 73.4 °F 29.84 in NNW 1.0 mph 4.0 mph 90 % 0.00 in
05:46 76.6 °F 73.4 °F 29.84 in Calm   6.0 mph 90 % 0.00 in
05:51 76.5 °F 73.2 °F 29.84 in NNW 1.0 mph 6.0 mph 90 % 0.00 in
05:56 76.5 °F 73.2 °F 29.84 in NNW 1.0 mph 6.0 mph 90 % 0.00 in
06:01 76.5 °F 73.2 °F 29.84 in NW 1.0 mph 5.0 mph 90 % 0.00 in
06:07 76.5 °F 73.2 °F 29.84 in NNW 2.0 mph 5.0 mph 90 % 0.00 in
06:12 76.5 °F 73.2 °F 29.83 in North 3.0 mph 5.0 mph 90 % 0.00 in
06:17 76.5 °F 73.2 °F 29.83 in NW 1.0 mph 4.0 mph 90 % 0.00 in
06:22 76.5 °F 73.2 °F 29.83 in NW 1.0 mph 5.0 mph 90 % 0.00 in
06:27 76.5 °F 73.2 °F 29.83 in Calm   6.0 mph 90 % 0.00 in
06:32 76.5 °F 73.2 °F 29.83 in NNW 1.0 mph 6.0 mph 90 % 0.00 in
06:37 76.5 °F 73.2 °F 29.83 in Calm   7.0 mph 90 % 0.00 in
06:42 76.5 °F 73.2 °F 29.83 in NW 2.0 mph 7.0 mph 90 % 0.00 in
06:47 76.5 °F 73.2 °F 29.83 in NW 1.0 mph 7.0 mph 90 % 0.00 in
06:52 76.5 °F 73.6 °F 29.83 in Calm   6.0 mph 91 % 0.00 in
06:57 76.5 °F 73.6 °F 29.83 in ENE 2.0 mph 6.0 mph 91 % 0.00 in
07:02 76.5 °F 73.6 °F 29.83 in Calm   8.0 mph 91 % 0.00 in
07:07 76.6 °F 73.8 °F 29.83 in NNW 1.0 mph 8.0 mph 91 % 0.00 in
07:12 76.5 °F 73.6 °F 29.83 in ENE 1.0 mph 8.0 mph 91 % 0.00 in
07:17 76.6 °F 73.8 °F 29.83 in North 1.0 mph 6.0 mph 91 % 0.00 in
07:22 76.6 °F 73.8 °F 29.83 in North 2.0 mph 5.0 mph 91 % 0.00 in
07:25 76.6 °F 73.8 °F 29.84 in Calm   5.0 mph 91 % 0.00 in
07:30 76.6 °F 73.8 °F 29.84 in NW 2.0 mph 5.0 mph 91 % 0.00 in
07:35 76.8 °F 73.9 °F 29.84 in Calm   6.0 mph 91 % 0.00 in
07:40 76.8 °F 73.9 °F 29.84 in NE 3.0 mph 6.0 mph 91 % 0.00 in
07:45 77.0 °F 74.1 °F 29.85 in Calm   6.0 mph 91 % 0.00 in
07:50 77.0 °F 74.1 °F 29.85 in Calm   6.0 mph 91 % 0.00 in
07:55 77.2 °F 74.3 °F 29.85 in East 1.0 mph 6.0 mph 91 % 0.00 in
08:00 77.2 °F 74.3 °F 29.85 in NE 4.0 mph 6.0 mph 91 % 0.00 in
08:05 77.5 °F 74.7 °F 29.85 in NNW 1.0 mph 6.0 mph 91 % 0.00 in
08:10 77.7 °F 74.8 °F 29.85 in North 2.0 mph 7.0 mph 91 % 0.00 in
08:15 77.7 °F 74.8 °F 29.85 in North 4.0 mph 7.0 mph 91 % 0.00 in
08:20 77.7 °F 74.8 °F 29.85 in NNW 2.0 mph 8.0 mph 91 % 0.00 in
08:25 77.9 °F 75.0 °F 29.86 in ENE 4.0 mph 8.0 mph 91 % 0.00 in
08:30 78.1 °F 75.2 °F 29.86 in ESE 2.0 mph 8.0 mph 91 % 0.00 in
08:35 78.1 °F 75.2 °F 29.86 in East 3.0 mph 7.0 mph 91 % 0.00 in
08:40 78.1 °F 74.8 °F 29.86 in East 1.0 mph 7.0 mph 90 % 0.00 in
08:45 78.3 °F 75.0 °F 29.86 in ENE 4.0 mph 7.0 mph 90 % 0.00 in
08:50 78.3 °F 75.0 °F 29.86 in Calm   7.0 mph 90 % 0.00 in
08:55 78.3 °F 75.4 °F 29.86 in ENE 1.0 mph 7.0 mph 91 % 0.00 in
09:00 78.3 °F 75.4 °F 29.87 in NNW 1.0 mph 7.0 mph 91 % 0.00 in
09:01 78.1 °F 75.2 °F 29.87 in SE 1.0 mph 7.0 mph 91 % 0.00 in
09:06 78.3 °F 75.4 °F 29.87 in SSE 1.0 mph 7.0 mph 91 % 0.00 in
09:11 78.3 °F 75.7 °F 29.87 in Calm   8.0 mph 92 % 0.00 in
09:16 78.1 °F 75.6 °F 29.87 in NNW 4.0 mph 8.0 mph 92 % 0.00 in
09:21 78.1 °F 75.6 °F 29.86 in NE 2.0 mph 8.0 mph 92 % 0.00 in
09:26 77.9 °F 75.4 °F 29.86 in NNE 3.0 mph 7.0 mph 92 % 0.00 in
09:31 77.9 °F 75.7 °F 29.86 in North 2.0 mph 7.0 mph 93 % 0.00 in
09:36 77.9 °F 75.7 °F 29.86 in NE 4.0 mph 8.0 mph 93 % 0.00 in
09:41 77.7 °F 75.6 °F 29.86 in SE 1.0 mph 8.0 mph 93 % 0.00 in
09:46 77.7 °F 75.6 °F 29.86 in East 2.0 mph 8.0 mph 93 % 0.00 in
09:51 77.7 °F 75.6 °F 29.85 in ESE 2.0 mph 7.0 mph 93 % 0.00 in
09:56 77.7 °F 75.6 °F 29.85 in East 3.0 mph 7.0 mph 93 % 0.00 in
10:01 77.5 °F 75.4 °F 29.85 in South 1.0 mph 7.0 mph 93 % 0.00 in
10:06 77.7 °F 75.6 °F 29.86 in ENE 3.0 mph 7.0 mph 93 % 0.00 in
10:11 77.7 °F 75.6 °F 29.85 in North 2.0 mph 7.0 mph 93 % 0.00 in
10:16 77.7 °F 75.9 °F 29.86 in Calm   9.0 mph 94 % 0.00 in
10:21 77.7 °F 75.9 °F 29.86 in WNW 1.0 mph 9.0 mph 94 % 0.00 in
10:26 77.7 °F 75.9 °F 29.86 in ENE 4.0 mph 9.0 mph 94 % 0.00 in
10:31 77.7 °F 75.9 °F 29.86 in ENE 2.0 mph 9.0 mph 94 % 0.00 in
10:36 77.5 °F 75.7 °F 29.86 in NE 1.0 mph 9.0 mph 94 % 0.00 in
10:41 77.5 °F 75.7 °F 29.86 in North 3.0 mph 9.0 mph 94 % 0.00 in
10:46 77.7 °F 75.9 °F 29.86 in ENE 3.0 mph 8.0 mph 94 % 0.01 in
10:51 77.7 °F 75.9 °F 29.86 in Calm   8.0 mph 94 % 0.01 in
10:56 77.7 °F 75.9 °F 29.86 in ENE 6.0 mph 8.0 mph 94 % 0.01 in
11:01 77.5 °F 75.7 °F 29.86 in Calm   8.0 mph 94 % 0.01 in
11:06 77.7 °F 75.9 °F 29.86 in NE 6.0 mph 8.0 mph 94 % 0.01 in
11:11 77.7 °F 75.9 °F 29.86 in Calm   8.0 mph 94 % 0.01 in
11:16 77.7 °F 75.9 °F 29.86 in NE 4.0 mph 8.0 mph 94 % 0.01 in
11:21 77.9 °F 76.1 °F 29.86 in North 3.0 mph 9.0 mph 94 % 0.01 in
11:26 78.1 °F 76.3 °F 29.86 in NNW 2.0 mph 9.0 mph 94 % 0.01 in
11:31 78.3 °F 76.1 °F 29.86 in Calm   9.0 mph 93 % 0.01 in
11:36 78.4 °F 76.6 °F 29.86 in NW 2.0 mph 8.0 mph 94 % 0.01 in
11:41 78.6 °F 76.8 °F 29.86 in NNW 2.0 mph 8.0 mph 94 % 0.01 in
11:46 78.6 °F 76.5 °F 29.86 in SSW 1.0 mph 8.0 mph 93 % 0.00 in
11:51 78.8 °F 76.6 °F 29.86 in WNW 3.0 mph 8.0 mph 93 % 0.00 in
11:56 79.0 °F 76.8 °F 29.86 in SE 4.0 mph 8.0 mph 93 % 0.00 in
12:01 78.8 °F 76.6 °F 29.86 in NE 2.0 mph 8.0 mph 93 % 0.00 in
12:06 78.8 °F 76.6 °F 29.85 in NNE 6.0 mph 8.0 mph 93 % 0.00 in
12:11 78.8 °F 77.0 °F 29.86 in NNE 2.0 mph 8.0 mph 94 % 0.01 in
12:16 78.6 °F 76.8 °F 29.85 in NNW 1.0 mph 8.0 mph 94 % 0.01 in
12:21 78.6 °F 76.8 °F 29.85 in ENE 7.0 mph 10.0 mph 94 % 0.01 in
12:26 78.6 °F 77.0 °F 29.86 in Calm   10.0 mph 95 % 0.02 in
12:31 78.6 °F 76.8 °F 29.86 in ENE 3.0 mph 10.0 mph 94 % 0.02 in
12:36 78.6 °F 77.0 °F 29.85 in NNW 6.0 mph 8.0 mph 95 % 0.02 in
12:41 78.4 °F 76.8 °F 29.85 in West 3.0 mph 10.0 mph 95 % 0.02 in
12:51 78.6 °F 77.0 °F 29.85 in NE 2.0 mph 10.0 mph 95 % 0.02 in
12:56 78.6 °F 77.0 °F 29.84 in NNW 1.0 mph 9.0 mph 95 % 0.02 in
13:01 78.6 °F 77.0 °F 29.85 in ENE 2.0 mph 9.0 mph 95 % 0.02 in
13:06 78.8 °F 77.2 °F 29.85 in ENE 7.0 mph 9.0 mph 95 % 0.02 in
13:12 79.0 °F 77.4 °F 29.85 in NNW 4.0 mph 11.0 mph 95 % 0.01 in
13:17 79.0 °F 77.2 °F 29.85 in NNE 5.0 mph 11.0 mph 94 % 0.01 in
13:21 79.0 °F 77.2 °F 29.85 in NNE 2.0 mph 11.0 mph 94 % 0.01 in
13:26 79.2 °F 77.4 °F 29.85 in ENE 3.0 mph 10.0 mph 94 % 0.00 in
13:31 79.2 °F 77.4 °F 29.86 in NNW 5.0 mph 10.0 mph 94 % 0.00 in
13:36 79.3 °F 77.2 °F 29.86 in ENE 3.0 mph 10.0 mph 93 % 0.00 in
13:41 79.3 °F 77.2 °F 29.86 in NE 3.0 mph 8.0 mph 93 % 0.00 in
13:46 79.3 °F 76.8 °F 29.86 in North 1.0 mph 11.0 mph 92 % 0.00 in
13:51 79.5 °F 77.0 °F 29.86 in SE 1.0 mph 11.0 mph 92 % 0.00 in
13:56 79.5 °F 77.0 °F 29.86 in ENE 3.0 mph 11.0 mph 92 % 0.00 in
14:01 79.3 °F 76.8 °F 29.85 in NE 4.0 mph 11.0 mph 92 % 0.00 in
14:06 79.3 °F 76.8 °F 29.85 in NE 5.0 mph 11.0 mph 92 % 0.00 in
14:11 79.3 °F 76.8 °F 29.85 in ESE 5.0 mph 11.0 mph 92 % 0.00 in
14:16 79.2 °F 76.6 °F 29.85 in NNW 1.0 mph 11.0 mph 92 % 0.01 in
14:21 79.0 °F 76.8 °F 29.85 in East 1.0 mph 13.0 mph 93 % 0.02 in
14:27 79.0 °F 76.8 °F 29.85 in East 5.0 mph 13.0 mph 93 % 0.03 in
14:32 78.8 °F 77.0 °F 29.85 in ENE 5.0 mph 13.0 mph 94 % 0.03 in
14:37 78.6 °F 76.8 °F 29.84 in ENE 3.0 mph 8.0 mph 94 % 0.04 in
14:42 78.6 °F 77.0 °F 29.84 in NE 6.0 mph 13.0 mph 95 % 0.04 in
14:47 78.4 °F 76.8 °F 29.83 in North 4.0 mph 13.0 mph 95 % 0.05 in
14:52 78.4 °F 76.8 °F 29.83 in NE 5.0 mph 13.0 mph 95 % 0.05 in
14:57 78.4 °F 76.8 °F 29.82 in NE 4.0 mph 12.0 mph 95 % 0.05 in
15:02 78.4 °F 76.8 °F 29.82 in East 4.0 mph 10.0 mph 95 % 0.05 in
15:07 78.4 °F 77.2 °F 29.82 in ENE 4.0 mph 12.0 mph 96 % 0.05 in
15:12 78.6 °F 77.4 °F 29.81 in NE 7.0 mph 12.0 mph 96 % 0.05 in
15:17 78.6 °F 77.0 °F 29.81 in NNW 3.0 mph 12.0 mph 95 % 0.04 in
15:22 78.4 °F 76.8 °F 29.81 in ENE 2.0 mph 12.0 mph 95 % 0.03 in
15:27 78.4 °F 76.8 °F 29.81 in ESE 4.0 mph 12.0 mph 95 % 0.02 in
15:32 78.4 °F 77.2 °F 29.81 in East 4.0 mph 11.0 mph 96 % 0.02 in
15:37 78.4 °F 77.2 °F 29.81 in Calm   11.0 mph 96 % 0.02 in
15:42 78.3 °F 77.0 °F 29.81 in ENE 7.0 mph 12.0 mph 96 % 0.02 in
15:47 78.3 °F 77.0 °F 29.81 in East 5.0 mph 12.0 mph 96 % 0.02 in
15:52 78.3 °F 77.0 °F 29.81 in WNW 1.0 mph 12.0 mph 96 % 0.02 in
15:57 78.4 °F 77.2 °F 29.81 in East 1.0 mph 12.0 mph 96 % 0.02 in
16:02 78.4 °F 77.2 °F 29.81 in NE 3.0 mph 12.0 mph 96 % 0.02 in
16:07 78.3 °F 77.0 °F 29.80 in North 6.0 mph 9.0 mph 96 % 0.02 in
16:12 78.3 °F 77.0 °F 29.80 in NNE 3.0 mph 9.0 mph 96 % 0.03 in
16:17 78.1 °F 76.5 °F 29.80 in North 1.0 mph 9.0 mph 95 % 0.04 in
16:22 77.7 °F 76.5 °F 29.80 in Calm   11.0 mph 96 % 0.04 in
16:27 77.7 °F 76.5 °F 29.80 in NNW 5.0 mph 11.0 mph 96 % 0.04 in
16:32 77.5 °F 76.3 °F 29.80 in NE 3.0 mph 12.0 mph 96 % 0.03 in
16:37 77.4 °F 76.1 °F 29.80 in WSW 1.0 mph 12.0 mph 96 % 0.03 in
16:42 77.5 °F 76.3 °F 29.80 in NNW 1.0 mph 12.0 mph 96 % 0.02 in
16:47 77.5 °F 76.3 °F 29.80 in North 6.0 mph 9.0 mph 96 % 0.02 in
16:52 77.5 °F 76.3 °F 29.80 in West 2.0 mph 9.0 mph 96 % 0.02 in
16:57 77.4 °F 75.7 °F 29.80 in NE 1.0 mph 11.0 mph 95 % 0.02 in
17:02 77.2 °F 75.6 °F 29.80 in North 5.0 mph 13.0 mph 95 % 0.02 in
17:07 76.8 °F 75.0 °F 29.81 in NW 4.0 mph 13.0 mph 94 % 0.02 in
17:13 76.8 °F 75.0 °F 29.81 in ESE 4.0 mph 13.0 mph 94 % 0.01 in
17:18 76.6 °F 74.8 °F 29.81 in Calm   11.0 mph 94 % 0.00 in
17:23 76.6 °F 74.8 °F 29.81 in North 1.0 mph 11.0 mph 94 % 0.00 in
17:24 76.6 °F 74.8 °F 29.81 in ENE 3.0 mph 11.0 mph 94 % 0.00 in
17:29 76.6 °F 74.8 °F 29.81 in North 2.0 mph 12.0 mph 94 % 0.00 in
17:34 76.6 °F 74.8 °F 29.80 in NNE 6.0 mph 12.0 mph 94 % 0.01 in
17:39 76.6 °F 74.8 °F 29.80 in ENE 3.0 mph 12.0 mph 94 % 0.01 in
17:44 76.6 °F 74.8 °F 29.80 in NNW 1.0 mph 11.0 mph 94 % 0.01 in
17:49 76.6 °F 74.8 °F 29.79 in NE 2.0 mph 11.0 mph 94 % 0.01 in
17:54 76.6 °F 74.8 °F 29.79 in NW 3.0 mph 11.0 mph 94 % 0.01 in
17:59 76.8 °F 75.0 °F 29.79 in NNW 5.0 mph 11.0 mph 94 % 0.01 in
18:04 76.8 °F 74.7 °F 29.79 in NE 13.0 mph 13.0 mph 93 % 0.01 in
18:09 77.0 °F 74.8 °F 29.79 in ENE 4.0 mph 13.0 mph 93 % 0.01 in
18:14 77.2 °F 75.0 °F 29.79 in ENE 6.0 mph 13.0 mph 93 % 0.01 in
18:19 77.2 °F 75.0 °F 29.79 in ENE 2.0 mph 13.0 mph 93 % 0.01 in
18:24 77.2 °F 75.0 °F 29.79 in NE 8.0 mph 10.0 mph 93 % 0.01 in
18:29 77.2 °F 75.0 °F 29.79 in North 5.0 mph 11.0 mph 93 % 0.01 in
18:34 77.2 °F 75.0 °F 29.79 in NNW 1.0 mph 13.0 mph 93 % 0.00 in
18:40 77.2 °F 75.0 °F 29.79 in NE 7.0 mph 13.0 mph 93 % 0.00 in
18:45 77.4 °F 74.8 °F 29.80 in East 8.0 mph 15.0 mph 92 % 0.00 in
18:50 77.4 °F 74.8 °F 29.81 in NNW 4.0 mph 15.0 mph 92 % 0.00 in
18:55 77.4 °F 74.8 °F 29.81 in East 5.0 mph 15.0 mph 92 % 0.00 in
19:00 77.5 °F 75.0 °F 29.81 in North 2.0 mph 14.0 mph 92 % 0.00 in
19:05 77.5 °F 74.7 °F 29.80 in East 5.0 mph 14.0 mph 91 % 0.00 in
19:10 77.5 °F 74.7 °F 29.81 in NW 1.0 mph 14.0 mph 91 % 0.00 in
19:15 77.5 °F 74.7 °F 29.81 in NW 4.0 mph 10.0 mph 91 % 0.00 in
19:20 77.7 °F 74.8 °F 29.80 in ENE 6.0 mph 11.0 mph 91 % 0.00 in
19:25 77.7 °F 74.8 °F 29.81 in ENE 1.0 mph 15.0 mph 91 % 0.00 in
19:30 77.7 °F 74.8 °F 29.81 in North 4.0 mph 17.0 mph 91 % 0.00 in
19:35 77.7 °F 74.8 °F 29.81 in East 2.0 mph 17.0 mph 91 % 0.00 in
19:40 77.7 °F 74.8 °F 29.80 in West 3.0 mph 17.0 mph 91 % 0.00 in
19:45 77.7 °F 74.8 °F 29.80 in NE 6.0 mph 15.0 mph 91 % 0.00 in
19:50 77.7 °F 74.8 °F 29.80 in NE 2.0 mph 15.0 mph 91 % 0.00 in
19:55 77.7 °F 74.8 °F 29.81 in SSE 2.0 mph 15.0 mph 91 % 0.00 in
20:00 77.7 °F 74.8 °F 29.81 in NW 2.0 mph 14.0 mph 91 % 0.00 in
20:05 77.7 °F 74.8 °F 29.81 in SE 2.0 mph 14.0 mph 91 % 0.00 in
20:06 77.7 °F 74.8 °F 29.81 in East 6.0 mph 13.0 mph 91 % 0.00 in
20:11 77.7 °F 74.8 °F 29.81 in NNE 6.0 mph 13.0 mph 91 % 0.00 in
20:16 77.9 °F 74.7 °F 29.81 in East 2.0 mph 12.0 mph 90 % 0.00 in
20:21 78.1 °F 74.8 °F 29.81 in NE 5.0 mph 13.0 mph 90 % 0.00 in
20:26 78.1 °F 74.8 °F 29.81 in SE 5.0 mph 13.0 mph 90 % 0.00 in
20:31 78.3 °F 75.0 °F 29.81 in ESE 4.0 mph 25.0 mph 90 % 0.00 in
20:36 78.3 °F 75.0 °F 29.81 in NNE 8.0 mph 25.0 mph 90 % 0.00 in
20:41 78.3 °F 74.7 °F 29.81 in South 1.0 mph 25.0 mph 89 % 0.00 in
20:47 78.3 °F 74.7 °F 29.81 in NW 2.0 mph 12.0 mph 89 % 0.00 in
20:51 78.1 °F 74.5 °F 29.81 in NNE 5.0 mph 12.0 mph 89 % 0.00 in
20:56 78.1 °F 74.5 °F 29.80 in NNE 10.0 mph 14.0 mph 89 % 0.00 in
21:01 78.1 °F 74.5 °F 29.80 in ENE 4.0 mph 14.0 mph 89 % 0.00 in
21:06 78.1 °F 74.8 °F 29.81 in NE 9.0 mph 14.0 mph 90 % 0.00 in
21:11 78.1 °F 74.8 °F 29.81 in East 6.0 mph 14.0 mph 90 % 0.00 in
21:16 78.1 °F 74.8 °F 29.81 in East 7.0 mph 14.0 mph 90 % 0.00 in
21:21 78.1 °F 74.8 °F 29.82 in East 3.0 mph 14.0 mph 90 % 0.00 in
21:26 78.1 °F 74.8 °F 29.82 in NW 7.0 mph 14.0 mph 90 % 0.00 in
21:32 77.9 °F 74.7 °F 29.81 in ENE 3.0 mph 14.0 mph 90 % 0.00 in
21:37 77.7 °F 74.8 °F 29.81 in NNW 9.0 mph 15.0 mph 91 % 0.00 in
21:42 77.7 °F 74.8 °F 29.82 in West 2.0 mph 15.0 mph 91 % 0.01 in
21:47 77.5 °F 75.0 °F 29.82 in NNW 2.0 mph 15.0 mph 92 % 0.02 in
21:52 77.2 °F 75.0 °F 29.82 in East 8.0 mph 11.0 mph 93 % 0.03 in
21:57 77.0 °F 74.8 °F 29.83 in NE 7.0 mph 10.0 mph 93 % 0.04 in
22:02 76.8 °F 75.0 °F 29.83 in ENE 3.0 mph 22.0 mph 94 % 0.05 in
22:07 76.8 °F 75.0 °F 29.82 in East 6.0 mph 22.0 mph 94 % 0.05 in
22:12 76.6 °F 74.8 °F 29.83 in NE 8.0 mph 22.0 mph 94 % 0.06 in
22:18 76.6 °F 74.8 °F 29.83 in NNE 7.0 mph 13.0 mph 94 % 0.07 in
22:23 76.6 °F 75.0 °F 29.83 in NE 4.0 mph 13.0 mph 95 % 0.08 in
22:28 76.6 °F 75.0 °F 29.82 in North 4.0 mph 13.0 mph 95 % 0.08 in
22:30 76.5 °F 74.8 °F 29.82 in ENE 3.0 mph 12.0 mph 95 % 0.09 in
22:31 76.5 °F 74.8 °F 29.82 in WSW 2.0 mph 12.0 mph 95 % 0.09 in
22:36 76.5 °F 74.8 °F 29.83 in ESE 2.0 mph 17.0 mph 95 % 0.10 in
22:41 76.5 °F 74.8 °F 29.83 in East 3.0 mph 17.0 mph 95 % 0.11 in
22:46 76.5 °F 74.8 °F 29.82 in NE 7.0 mph 17.0 mph 95 % 0.10 in
22:51 76.5 °F 74.8 °F 29.82 in ENE 9.0 mph 13.0 mph 95 % 0.09 in
22:56 76.5 °F 75.2 °F 29.82 in ENE 9.0 mph 14.0 mph 96 % 0.10 in
23:01 76.5 °F 75.2 °F 29.82 in NW 2.0 mph 14.0 mph 96 % 0.09 in
23:06 76.5 °F 75.2 °F 29.82 in SSE 4.0 mph 14.0 mph 96 % 0.09 in
23:11 76.6 °F 75.0 °F 29.83 in East 10.0 mph 14.0 mph 95 % 0.09 in
23:16 76.6 °F 75.0 °F 29.83 in SSE 2.0 mph 14.0 mph 95 % 0.08 in
23:22 76.6 °F 75.4 °F 29.83 in ENE 5.0 mph 14.0 mph 96 % 0.07 in
23:27 76.6 °F 75.4 °F 29.83 in South 2.0 mph 12.0 mph 96 % 0.07 in
23:32 76.6 °F 75.4 °F 29.82 in West 4.0 mph 11.0 mph 96 % 0.07 in
23:37 76.6 °F 75.4 °F 29.83 in ESE 1.0 mph 12.0 mph 96 % 0.05 in
23:42 76.6 °F 75.4 °F 29.83 in ENE 4.0 mph 12.0 mph 96 % 0.04 in
23:47 76.6 °F 75.4 °F 29.83 in ENE 2.0 mph 12.0 mph 96 % 0.04 in
23:52 76.6 °F 75.4 °F 29.83 in East 2.0 mph 10.0 mph 96 % 0.03 in
23:57 76.6 °F 75.4 °F 29.83 in North 7.0 mph 10.0 mph 96 % 0.02 in
Spring, Texas: Villages of Bridgestone
Compliments of Weather Underground - 2.75 mb

Script developed by  Jim McMurry - jmcmurry@mwt.net Adapted for the template by  Wim van der Kuil - Leuven-Template.eu

You find our weather info also at:

UK Metoffice

WeatherCloud

Weather Underground

Mid-South Weather Network

AWEKAS

Citizen Weather Observer Program (CWOP)

HAMweather, WeatherForYou, PWS Weather

Equipment we use:

Weather-station
Davis Vantage Vue

Weather-program
Meteohub

Weather-server
Debian 7.9 x86 (Guest)

Provider
DreamHost

Davis Vantage Vue

Meteohub

Debian 7.9 x86 (Guest)

DreamHost